This is the latest recevied weather packets stored in our database for station/object K5SVV. If no packets are shown the sender has not sent any weather packets the latest 10 day(s).
| Time | Temp. | Humidity | Pressure | Rain* | Wind** | Luminosity | Snow |
|---|---|---|---|---|---|---|---|
| 1777556776 | 15° C | 94% | 1013 hPa | 0 mm | - | 39 W/m² | - |
| 1777556474 | 15° C | 94% | 1012.7 hPa | 0 mm | - | 38 W/m² | - |
| 1777556173 | 15° C | 94% | 1013 hPa | 0 mm | - | 29 W/m² | - |
| 1777555869 | 15° C | 94% | 1013.2 hPa | 0 mm | - | 28 W/m² | - |
| 1777555565 | 15° C | 94% | 1012.8 hPa | 0 mm | - | 32 W/m² | - |
| 1777555262 | 15° C | 94% | 1012.9 hPa | 0 mm | - | 35 W/m² | - |
| 1777554958 | 15° C | 94% | 1012.5 hPa | 0 mm | - | 41 W/m² | - |
| 1777554655 | 15° C | 94% | 1012.7 hPa | 0 mm | - | 35 W/m² | - |
| 1777554351 | 15° C | 94% | 1012.5 hPa | 0 mm | - | 44 W/m² | - |
| 1777554049 | 15° C | 94% | 1012.3 hPa | 0 mm | - | 35 W/m² | - |
| 1777553744 | 15° C | 94% | 1012.2 hPa | 0 mm | - | 41 W/m² | - |
| 1777553442 | 15° C | 94% | 1012.5 hPa | 0 mm | - | 35 W/m² | - |
| 1777553138 | 15° C | 94% | 1012.4 hPa | 0 mm | - | 28 W/m² | - |
| 1777552832 | 15° C | 94% | 1012.4 hPa | 0 mm | - | 30 W/m² | - |
| 1777552528 | 15° C | 94% | 1012.7 hPa | 0 mm | - | 27 W/m² | - |
| 1777552224 | 15° C | 94% | 1012.5 hPa | 0 mm | - | 19 W/m² | - |
| 1777551921 | 15° C | 94% | 1012.4 hPa | 0 mm | - | 21 W/m² | - |
| 1777551619 | 15° C | 94% | 1012.3 hPa | 0 mm | - | 15 W/m² | - |
| 1777551317 | 15.56° C | 95% | 1012.4 hPa | 0 mm | - | 12 W/m² | - |
| 1777551013 | 15.56° C | 95% | 1011.9 hPa | 0 mm | - | 11 W/m² | - |
| 1777550710 | 15.56° C | 95% | 1012.2 hPa | 0 mm | - | 7 W/m² | - |
| 1777550406 | 15.56° C | 94% | 1012.4 hPa | 0 mm | - | 3 W/m² | - |
| 1777550103 | 15.56° C | 94% | 1012.1 hPa | 0 mm | - | 2 W/m² | - |
| 1777549799 | 15.56° C | 94% | 1012.1 hPa | 0 mm | - | 2 W/m² | - |
| 1777549495 | 15.56° C | 94% | 1012.1 hPa | 0 mm | - | 0 W/m² | - |
* Rain latest hour (hover to see other rain measurements)
** Current wind speed in m/s (hover to see current wind gust speed)